Theta_e
321 324 324 325 324 319 323 322 317 319 319 316 316 318 318 318 322 322 318 321 322 322 321 323 325 329 331 330 331 332 333 333 332 332 332 332 332 332 330 331 331 332 333 333 333 332 332 332 332
323 323 324 321 323 323 323 318 318 317 317 315 316 318 317 319 314 313 315 319 320 322 320 320 323 325 327 328 327 329 330 330 329 331 329 327 326 326 325 324 324 325 326 326 326 325 325 326 327
320 321 320 322 320 321 319 316 315 316 315 317 317 315 316 316 312 313 313 318 318 319 319 318 322 325 324 324 324 325 325 325 326 325 322 320 319 318 317 316 314 314 314 316 317 317 317 315 318
321 319 314 315 319 316 318 315 315 315 315 315 315 316 312 313 313 313 314 316 317 317 315 317 321 322 321 320 319 319 319 318 320 318 315 313 311 308 304 304 306 308 311 311 310 311 311 307 307
319 315 320 318 317 316 317 315 313 315 314 315 315 316 314 311 314 313 314 315 315 315 313 315 318 319 318 317 316 315 312 308 309 309 308 305 305 307 307 307 307 306 308 309 309 308 308 304 301
315 313 317 319 318 317 316 313 314 315 314 313 315 313 312 310 311 311 313 313 313 313 311 311 313 314 312 312 310 308 306 303 303 303 303 301 300 300 299 302 305 307 308 308 308 307 307 307 308
319 320 320 319 319 318 317 314 314 314 313 314 312 315 309 306 309 309 311 312 311 311 309 307 307 307 306 304 302 302 301 299 299 300 299 298 296 296 296 296 298 298 300 301 303 305 305 306 305
315 314 319 318 319 319 316 316 315 314 314 312 312 313 313 307 307 307 308 309 308 308 308 304 303 303 302 301 300 299 298 297 297 296 296 297 297 296 296 296 297 299 303 304 305 304 299 296 296
317 314 316 318 320 319 315 316 314 312 315 314 313 313 311 310 307 305 304 304 304 305 305 303 301 300 299 298 298 297 296 296 296 296 297 297 296 297 297 295 296 295 296 298 297 296 294 295 295
317 315 317 318 317 317 315 314 313 314 313 313 313 307 308 307 305 303 302 301 301 301 301 301 301 300 300 298 296 295 296 296 297 297 297 297 296 297 296 295 294 294 294 294 294 294 294 294 294
316 316 317 317 317 314 316 315 313 313 313 310 311 308 305 304 303 302 302 301 301 301 300 300 300 300 300 299 296 297 297 297 297 296 296 297 296 296 296 295 295 294 294 295 294 294 294 294 294
318 316 316 317 316 316 315 313 315 311 313 313 309 309 305 303 303 302 302 302 302 301 300 300 300 300 299 298 297 298 298 297 296 295 296 296 296 295 295 294 294 294 294 294 294 294 293 293 292
317 316 316 315 314 314 314 313 312 311 310 309 310 307 305 304 304 304 304 303 302 302 301 300 300 299 299 297 297 298 298 298 297 295 295 296 295 295 294 294 294 294 293 293 293 293 292 292 292
316 316 314 314 314 313 314 312 313 311 310 310 309 308 305 305 304 303 303 303 303 303 302 301 300 299 299 298 297 298 298 297 296 295 294 294 295 295 294 294 294 293 293 292 292 292 291 290 290
315 315 312 313 313 313 312 313 313 313 312 311 309 308 306 306 305 304 304 304 305 304 303 302 300 299 299 298 298 298 298 297 296 295 294 294 294 295 295 294 294 293 292 292 291 291 290 290 290
314 313 314 314 312 313 313 314 312 311 309 310 309 307 306 307 306 307 306 306 305 305 303 302 300 299 298 298 298 297 297 296 295 295 294 293 294 294 293 293 293 292 291 290 290 290 289 289 289
311 311 313 314 313 312 312 313 312 311 308 310 307 307 307 306 306 308 308 308 306 306 305 302 300 299 298 298 297 297 296 296 295 294 294 293 293 293 292 292 292 291 290 290 290 289 289 288 288
312 313 313 314 314 312 312 312 313 310 311 309 307 307 307 308 309 309 309 308 307 306 306 303 299 299 298 297 297 296 296 295 294 294 293 293 293 292 292 292 291 291 290 289 289 288 288 288 287
311 312 312 312 313 313 313 313 313 312 308 310 311 310 308 308 310 310 309 308 307 305 303 301 298 298 298 297 296 296 295 294 293 293 293 292 292 292 291 290 290 289 288 288 288 288 288 288 287
312 313 314 313 313 312 312 313 311 312 312 309 311 311 311 311 307 306 307 306 305 304 302 299 299 299 298 297 296 294 294 294 293 293 292 292 291 291 290 290 289 289 288 288 288 287 287 287 287
314 313 313 312 312 310 310 311 311 311 312 311 311 311 311 311 308 305 302 304 303 301 300 299 298 299 297 296 295 294 294 293 293 292 291 291 291 290 290 289 289 288 288 288 287 287 286 286 286
315 311 312 313 313 314 310 314 310 311 311 311 311 311 310 310 305 304 303 303 302 301 300 299 298 298 297 296 295 294 293 292 292 291 291 291 290 290 289 289 288 288 288 287 287 286 286 286 285
313 311 311 312 312 313 313 313 313 310 310 310 310 310 311 308 304 303 303 304 302 301 300 299 298 297 296 296 295 294 292 292 292 292 291 291 290 289 289 288 288 287 287 286 286 285 285 285 285
310 312 311 310 309 313 312 314 313 309 312 310 310 309 309 306 305 303 304 304 301 300 299 297 296 296 295 295 294 294 292 292 292 291 291 290 290 289 288 288 287 287 286 286 285 285 284 284 284
311 312 313 314 312 315 310 312 313 310 309 309 310 310 309 305 304 302 300 299 299 298 297 297 296 295 295 295 294 293 293 292 292 292 290 289 289 288 288 288 287 286 285 285 284 284 284 283 283
310 313 315 314 313 312 308 311 312 311 311 308 307 308 305 305 303 302 301 300 299 298 297 297 296 295 295 295 294 293 293 292 292 292 291 290 289 289 289 288 287 286 285 284 284 283 283 282 281
310 312 311 315 306 310 313 310 309 309 308 307 307 305 305 304 302 302 300 299 298 298 297 297 296 295 295 294 294 293 292 292 291 291 291 290 290 290 288 287 286 285 284 283 283 282 282 281 281
309 307 313 313 316 313 312 309 312 311 310 309 306 304 304 303 303 302 300 299 299 299 298 298 296 295 295 294 294 293 292 292 291 291 290 290 290 289 287 286 285 284 283 282 282 281 281 280 280
306 308 308 309 313 315 314 313 307 308 309 310 307 304 303 303 303 302 301 300 300 300 299 298 297 296 295 294 293 293 292 291 291 291 291 290 290 288 287 285 284 283 282 282 281 280 280 279 279
307 310 311 313 313 309 312 313 309 309 308 309 309 307 306 304 304 302 301 299 299 299 298 298 297 295 295 294 292 292 291 291 291 290 290 290 289 288 286 285 283 282 281 281 280 280 279 278 277
Wind_Speed
1 3 7 3 4 4 4 5 3 3 3 2 2 5 8 3 3 4 14 16 14 12 12 13 13 13 12 10 9 9 9 7 7 6 6 7 5 5 7 9 7 7 5 4 5 8 5 6 7
1 4 0 2 3 2 5 3 4 2 3 4 6 3 5 1 4 7 13 17 15 15 12 14 14 13 13 12 11 10 11 9 8 11 10 9 9 10 9 6 5 7 8 8 8 7 7 6 5
1 2 3 3 3 4 3 5 7 3 4 3 3 2 2 5 1 20 9 23 20 16 12 14 14 13 12 13 12 11 11 10 11 11 8 8 9 10 10 9 8 7 6 8 8 8 6 6 6
4 4 4 3 7 8 4 5 5 7 3 2 5 2 2 3 12 16 25 26 21 17 15 15 13 13 13 13 13 12 11 11 12 11 10 10 9 7 6 6 6 8 9 8 8 8 7 8 7
3 3 1 3 6 5 1 7 8 6 5 5 4 4 2 1 13 21 29 26 23 19 17 17 16 15 14 13 13 13 12 11 10 9 8 8 8 9 10 10 10 9 10 11 10 11 10 10 9
3 3 2 4 5 4 4 10 9 6 5 5 3 3 4 12 24 24 27 26 23 21 19 20 19 17 15 13 12 11 10 10 10 9 9 9 9 9 10 10 11 11 11 12 12 12 12 13 12
3 3 4 5 7 5 4 5 7 8 8 7 6 5 1 9 20 23 25 24 22 20 20 19 19 17 15 13 12 11 10 9 9 9 10 9 9 8 8 8 8 9 10 11 12 13 13 12 12
3 3 4 4 4 5 4 2 1 5 7 2 6 6 5 11 24 23 22 21 22 21 19 20 20 18 16 15 13 11 10 9 9 9 10 10 8 8 7 7 10 12 12 12 12 12 11 11 10
2 2 4 5 3 3 4 4 3 3 2 2 6 2 2 24 30 27 24 23 23 23 22 22 20 19 17 15 14 13 13 13 13 12 11 10 7 7 7 9 10 11 10 10 11 11 13 13 13
3 3 6 4 3 2 3 4 7 2 3 4 3 3 17 33 34 27 27 28 30 30 28 26 23 23 20 18 17 16 15 15 13 13 11 11 8 6 6 7 8 9 10 10 11 12 13 13 13
5 6 4 4 2 4 2 2 6 6 7 8 12 8 14 18 25 25 26 31 39 35 30 30 27 25 22 21 20 18 17 16 14 14 13 11 9 6 5 4 5 6 8 10 11 11 12 14 15
5 9 8 6 2 1 3 5 4 9 12 6 11 13 16 16 19 27 28 34 35 36 35 32 29 28 24 22 21 19 19 18 16 15 14 13 11 8 5 3 4 5 7 10 11 12 12 13 14
8 5 7 6 6 5 2 10 7 13 10 11 9 10 17 16 23 28 32 31 35 38 38 36 33 31 29 27 23 22 22 20 17 16 15 13 11 8 5 3 2 4 7 9 11 11 12 13 14
3 3 7 6 6 6 6 5 4 9 9 14 11 11 13 18 25 22 26 32 38 38 41 39 37 34 32 30 28 26 24 22 19 18 16 14 12 9 7 4 1 3 7 9 10 11 12 14 15
3 8 9 10 8 8 5 10 14 24 5 9 11 11 11 18 22 29 36 34 40 40 41 42 40 36 35 32 29 28 26 24 23 20 18 16 14 12 9 7 3 1 4 5 6 8 10 13 16
3 2 4 3 7 6 10 16 10 17 10 17 13 10 10 14 23 32 34 38 39 39 42 43 43 39 36 33 31 29 27 26 25 23 21 19 16 14 11 8 5 1 1 3 5 8 11 14 17
4 6 8 10 11 7 7 11 8 8 10 14 11 12 11 11 16 29 37 42 42 45 45 47 46 43 38 34 31 30 29 28 27 25 23 21 18 15 12 9 6 3 2 3 4 7 11 14 17
8 6 7 9 3 4 7 15 18 9 5 10 10 10 11 15 22 27 38 40 42 45 47 48 48 43 38 34 32 31 30 29 27 27 26 23 20 18 15 12 9 6 4 3 3 7 9 12 17
5 6 7 9 8 7 13 17 21 18 8 15 17 15 14 17 23 24 36 41 41 42 44 46 46 45 41 39 38 35 36 33 31 29 27 25 22 20 17 13 11 9 7 4 4 6 9 11 16
12 18 19 13 15 10 10 18 13 13 17 13 18 18 19 19 9 10 24 33 40 45 46 45 48 48 46 45 43 32 37 36 33 31 29 27 25 22 19 16 13 11 9 6 4 5 6 7 9
17 14 18 15 7 6 8 11 9 12 16 14 14 18 17 22 13 10 11 28 33 38 44 48 49 49 46 43 41 30 27 26 32 32 31 30 27 24 21 18 15 13 11 8 5 3 4 4 5
23 9 12 9 3 14 6 19 7 8 16 14 18 16 19 20 9 8 11 19 32 38 42 45 47 48 47 46 43 39 34 28 32 35 37 34 31 28 24 21 18 15 13 10 7 6 5 6 7
19 4 9 3 5 5 5 7 4 8 10 12 15 16 20 13 11 11 16 29 35 36 42 46 47 47 47 49 46 43 33 32 31 36 38 37 33 29 26 23 20 17 14 11 10 8 8 8 9
3 2 2 2 2 11 9 11 13 7 13 7 16 15 18 11 10 9 12 20 25 29 33 37 42 44 45 47 46 47 38 35 32 35 38 38 36 33 29 25 22 18 16 14 11 10 10 10 9
3 5 3 3 1 11 12 11 25 8 8 14 17 18 18 8 8 9 11 11 19 29 32 34 36 36 41 44 45 45 43 41 41 40 38 39 39 37 33 28 24 21 17 14 12 12 11 11 13
9 14 7 8 6 13 4 8 7 14 16 10 12 14 8 9 9 10 12 12 20 28 33 34 36 35 41 45 45 43 44 41 42 43 41 42 42 41 35 30 25 21 18 16 13 12 13 13 14
5 7 12 3 2 2 12 14 9 6 10 10 16 10 8 9 9 10 9 12 20 25 32 39 36 35 39 45 42 43 44 43 43 44 43 42 41 38 33 29 26 23 20 18 15 15 14 14 15
3 0 2 3 4 7 15 8 15 6 17 17 10 11 10 8 8 8 9 10 21 27 33 36 36 38 39 40 42 42 43 45 42 43 43 43 40 35 32 30 27 24 21 18 15 15 14 15 16
1 4 5 3 4 13 17 15 7 8 7 10 11 10 9 9 10 9 9 12 22 28 33 35 38 39 40 44 44 41 44 44 44 43 44 44 39 36 34 31 28 25 21 18 16 14 14 15 16
5 12 17 13 19 3 5 15 4 12 9 5 3 5 6 7 8 8 9 9 18 26 28 36 37 37 45 41 39 44 40 43 43 43 43 42 40 38 35 31 28 25 22 18 15 15 15 15 17
Wind_Direction
91 39 336 350 40 67 269 262 141 76 59 41 62 84 135 85 154 200 141 136 152 160 159 155 149 146 141 138 146 151 144 130 121 115 115 107 115 106 83 76 92 91 82 83 51 35 14 19 20
25 21 287 73 91 31 273 210 121 137 144 107 69 5 66 141 124 141 144 157 153 161 159 155 145 147 158 155 155 160 132 130 120 110 102 97 94 91 86 78 74 65 60 50 36 13 6 4 12
61 336 81 109 165 197 236 168 161 133 105 102 88 76 143 185 157 163 168 158 167 174 171 155 142 136 133 138 150 151 131 126 120 118 114 106 100 94 86 80 76 65 52 49 44 32 11 356 348
359 19 15 94 246 263 228 158 142 128 27 51 135 162 57 190 168 180 160 166 173 180 175 156 143 138 137 134 133 131 127 124 122 115 110 105 99 95 82 68 60 60 56 50 39 37 21 11 3
323 62 41 249 260 268 209 171 156 150 163 198 150 219 228 263 160 163 165 169 175 174 171 159 149 146 141 135 130 130 135 135 132 129 119 106 100 91 85 80 73 65 58 51 45 38 27 21 14
8 99 34 253 251 267 192 162 146 151 181 174 156 149 212 171 154 165 168 172 185 179 175 170 160 158 154 148 145 143 138 133 132 126 120 113 110 100 89 82 73 70 66 54 45 38 32 29 30
131 97 226 252 260 290 224 153 157 176 160 209 164 170 21 176 175 169 170 177 185 189 183 180 176 172 168 165 165 159 154 149 141 135 127 114 103 95 89 87 77 66 60 50 43 37 37 38 31
121 106 278 244 237 250 184 109 66 154 230 25 158 214 223 201 175 169 174 180 187 194 194 187 184 183 179 178 180 176 173 165 157 149 137 126 121 116 100 89 74 67 58 49 46 42 37 37 33
67 45 254 256 243 213 184 161 325 162 143 228 206 174 232 164 166 168 174 180 188 200 203 196 189 187 186 186 185 183 174 160 152 148 149 134 134 127 100 83 77 69 61 52 42 24 20 20 18
122 160 235 222 311 322 211 179 182 201 217 232 209 58 141 156 166 174 180 187 192 197 198 202 197 196 190 187 183 175 171 169 168 163 159 154 146 133 114 89 75 63 52 38 24 13 11 8 7
198 215 219 296 354 27 310 269 188 179 246 211 210 178 169 168 177 186 197 197 198 200 199 202 201 201 198 191 186 184 182 175 174 170 168 164 158 148 131 97 72 52 43 25 18 13 6 3 360
223 237 244 274 241 180 256 297 256 197 228 213 226 191 174 179 189 195 201 204 204 204 205 205 205 202 202 199 196 189 188 185 179 175 173 172 167 163 148 118 75 46 35 24 15 10 7 3 0
217 240 255 250 225 231 267 255 247 263 250 247 237 156 188 198 203 208 208 209 207 208 208 209 206 205 201 200 198 195 194 195 189 183 182 182 179 174 164 149 92 38 27 17 14 8 3 359 354
267 267 270 266 250 243 195 260 160 259 230 245 239 231 194 202 207 208 208 208 209 210 211 209 209 208 204 203 202 200 199 197 196 191 190 188 187 184 179 175 149 30 19 11 7 4 357 354 346
295 307 311 251 232 222 137 281 225 250 230 247 240 234 207 215 202 209 211 208 210 210 211 209 208 207 207 206 204 203 201 201 201 198 195 197 195 196 196 195 188 40 8 359 357 351 349 345 341
256 209 279 252 170 204 137 263 234 248 195 236 242 239 227 224 215 218 214 213 213 209 209 208 205 207 208 206 205 204 205 204 205 204 202 202 200 199 197 195 195 188 346 348 354 351 344 344 342
241 238 218 294 188 153 180 251 261 261 195 239 229 236 234 236 231 224 215 217 210 210 207 205 202 204 206 205 204 207 207 207 207 207 207 205 203 201 199 197 194 208 262 325 341 342 339 338 339
214 224 246 230 212 160 198 247 266 256 269 244 238 240 240 243 242 220 219 214 210 206 208 203 199 202 203 202 202 207 209 210 210 211 210 209 206 203 203 202 203 213 226 250 305 327 333 339 340
232 261 239 265 251 180 228 235 246 260 218 245 255 259 249 240 250 228 218 210 199 196 195 194 191 198 199 197 197 201 204 206 207 212 214 212 211 208 206 203 204 211 219 234 291 317 333 345 347
244 259 268 278 264 202 246 245 243 255 253 223 237 245 247 252 253 220 206 192 188 189 191 188 193 197 200 200 201 200 205 208 210 212 215 215 212 210 208 207 207 214 221 235 272 313 337 351 4
244 244 260 265 301 250 296 267 232 248 248 249 238 243 255 248 241 224 181 188 182 182 185 190 192 198 200 201 200 200 206 212 210 211 212 215 215 212 210 210 211 217 226 235 251 272 296 305 335
263 225 244 244 236 270 151 291 231 242 248 247 252 246 242 248 223 207 184 182 186 190 187 189 192 197 200 204 199 198 199 202 206 205 211 213 216 213 212 212 214 219 225 234 240 243 250 258 278
257 223 239 240 240 313 176 285 231 187 241 250 249 245 254 241 210 200 189 191 193 184 185 189 193 196 200 205 204 201 206 209 210 211 213 212 214 216 214 213 215 220 224 227 232 233 237 252 270
123 75 355 30 80 265 174 202 261 192 219 244 246 249 255 240 202 201 193 181 180 183 183 186 189 195 201 206 205 207 205 205 204 209 210 210 210 212 213 214 217 220 222 223 226 236 243 248 259
155 100 295 313 346 251 186 210 253 290 249 220 232 237 239 179 171 167 164 174 172 178 183 187 190 194 199 204 207 209 211 210 211 214 209 206 209 208 210 212 213 215 218 220 223 231 242 258 265
195 202 184 206 233 278 137 245 256 214 230 230 237 229 195 184 191 183 182 181 182 185 186 188 194 198 201 206 209 212 214 212 216 221 217 215 212 211 211 211 212 213 213 215 219 234 248 256 262
187 182 228 299 126 27 265 270 290 241 247 248 239 237 205 206 193 196 188 185 184 184 191 197 199 202 207 208 207 211 215 213 215 220 220 220 218 218 213 209 207 208 211 217 223 232 242 251 259
159 78 109 236 209 246 261 262 265 272 270 258 265 214 220 206 207 213 202 190 191 195 200 204 206 205 208 212 212 212 214 218 217 219 218 218 219 216 208 206 206 209 212 215 223 233 242 253 261
86 247 234 293 193 250 263 271 217 242 248 258 246 220 196 212 216 210 212 198 197 202 204 205 211 212 212 214 213 210 214 217 218 220 221 218 215 211 209 208 208 211 213 216 221 233 244 252 263
254 229 228 241 251 240 270 262 185 252 233 186 311 290 230 216 214 211 209 183 197 204 204 206 210 209 218 215 210 214 212 217 218 219 219 215 209 209 210 208 211 211 213 215 223 233 245 255 265